Location: Unspecified
(0.0000°N, 0.0000°E)
Time: 15:58:32
(UTC+02:00)

Orbus 21S - Visible Passes

Search period start: 29 April 2016 00:00
Search period end: 09 May 2016 00:00
Orbit: 287 x 33141 km, 24.1° (Epoch: 28 April)

Date Brightness Start Highest point End Pass type
(mag) Time Alt. Az. Time Alt. Az. Time Alt. Az.
29 Apr 5.7 07:44:58 10° W 07:57:52 21° NW 08:02:03 10° N visible
29 Apr 7.6 18:09:33 10° WNW 18:44:59 73° SSW 03:15:53 10° E visible
30 Apr 6.1 13:22:31 10° N 20:21:18 21° ESE 21:16:35 18° ESE visible
01 May 7.4 18:42:31 10° W 19:37:28 67° SSW 03:48:11 10° ENE visible
02 May 6.2 13:53:14 10° NNW 20:55:23 30° ESE 21:48:41 27° ESE visible
03 May 7.3 19:16:02 10° W 20:38:40 61° SSW 04:20:02 10° ENE visible
04 May 6.5 14:24:10 10° NW 21:30:48 38° ESE 22:20:53 36° ESE visible
05 May 7.2 19:50:20 10° W 21:29:12 54° SW 04:51:30 10° ENE visible
06 May 6.8 14:55:12 10° NW 22:08:16 47° SE 22:53:12 44° ESE visible
07 May 7.0 20:25:48 10° W 22:10:24 46° SW 05:22:38 10° NE visible
